Weather Service Report


216 
ASUS45 KABQ 011701
RWRNM 
NEW MEXICO REGIONAL WEATHER ROUNDUP
NATIONAL WEATHER SERVICE ALBUQUERQUE NM
1100 AM MDT WED JUL 01 2015

NOTE: "FAIR" MEANS FEW OR NO CLOUDS BELOW 12,000 FEET AGL WITH NO
       SIGNIFICANT WEATHER OR OBSTRUCTIONS TO VISION.

      THIS PRODUCT IS RELEASED AS TWO VERSIONS.  ONE VERSION NEAR
      THE TOP OF THE HOUR CONTAINING PRELIMINARY DATA FROM ALBUQUERQUE
      AND OTHER STATIONS.  A FINAL VERSION WITH ADDITIONAL DATA IS 
      ISSUED ABOUT 10 MINUTES AFTER THE HOUR.
 
NMZ501-503-504-510>518-011800-
NORTHWEST PLATEAU/NORTHCENTRAL MOUNTAINS
  
CITY           SKY/WX    TMP DP  RH WIND       PRES   REMARKS
FARMINGTON     SUNNY     84  48  28 VRB5      30.14F                  
LOS ALAMOS     PTSUNNY   73  49  42 CALM      30.30F                  
SANTA FE       MOSUNNY   79  46  31 VRB3      30.23F                  
TAOS           SUNNY     75  48  38 CALM      30.29S                  
ANGEL FIRE     FAIR      72  48  42 CALM      30.38F                  

$$
NMZ402-403-502-505>509-011800-
WESTCENTRAL MOUNTAINS/SOUTHWEST MOUNTAINS
  
CITY           SKY/WX    TMP DP  RH WIND       PRES   REMARKS
GALLUP         SUNNY     81  53  37 S10G18    30.23S                  
GRANTS         SUNNY     83  45  26 SE12G17   30.23F                  
SILVER CITY      N/A     82  46  28 CALM      30.20F                  

$$
NMZ407-409-411-412-011800-
SOUTHERN DESERTS
  
CITY           SKY/WX    TMP DP  RH WIND       PRES   REMARKS
LORDSBURG      FAIR      82  50  32 S5        30.11F                  
DEMING         SUNNY     85  51  31 CALM      30.11F                  
LAS CRUCES     SUNNY     85  47  26 S5        30.14S                  
HOLLOMAN AFB   SUNNY     85  51  30 SW3       30.08F                  
ALAMOGORDO     SUNNY     84  50  30 SW6       30.10F                  
T OR C         SUNNY     84  49  29 SE9       30.13F                  

$$
NMZ519>523-011800-
CENTRAL VALLEYS/CENTRAL HIGHLANDS
  
CITY           SKY/WX    TMP DP  RH WIND       PRES   REMARKS
ALBUQUERQUE    MOSUNNY   81  49  32 CALM      30.17F                  
DOUBLE EAGLE   PTSUNNY   82  50  32 VRB7      30.20F                  
MORIARTY ARPT    N/A     82  44  26 NE3       30.22F                  
CLINES CORNERS SUNNY     79  47  32 NW8G17    30.26F                  
BELEN          FAIR      83  46  27 CALM      30.14F                  
SOCORRO        FAIR      84  50  30 SE14G22   30.12F                  

$$
NMZ524>526-539-540-011800-
SOUTHCENTRAL MOUNTAINS
  
CITY           SKY/WX    TMP DP  RH WIND       PRES   REMARKS
RUIDOSO        NOT AVBL                                               

$$
NMZ527>531-011800-
NORTHEAST HIGHLANDS/NORTHEAST PLAINS
  
CITY           SKY/WX    TMP DP  RH WIND       PRES   REMARKS
LAS VEGAS      PTSUNNY   73  55  53 CALM      30.26R                  
RATON          SUNNY     83  53  35 E7        30.20R                  
CLAYTON        MOSUNNY   88  52  29 NE14      30.11R                  

$$
NMZ532>537-011800-
EASTCENTRAL PLAINS
  
CITY           SKY/WX    TMP DP  RH WIND       PRES   REMARKS
TUCUMCARI      SUNNY     92  51  24 SW7       30.02F                  
CANNON AFB     NOT AVBL                                               
CLOVIS AIRPORT SUNNY     84  57  39 SW10        N/A                   

$$
NMZ028-029-538-011800-
SOUTHEAST PLAINS
  
CITY           SKY/WX    TMP DP  RH WIND       PRES   REMARKS
ROSWELL        SUNNY     87  55  33 S8        30.06F                  
ARTESIA        SUNNY     82  63  51 SE10      30.08F                  
CARLSBAD       SUNNY     85  63  47 E7        30.06F                  
HOBBS          SUNNY     81  64  57 S8        30.10F                  


$$

Return to Home page


Western Regional Climate Center, wrcc@dri.edu